EW8788 Weather Reports


time (UTC)temp
C
wind
direction
speed
KPH
gust
KPH
rain 1hr
cm
rain 24hr
cm
rain mn
cm
humidity
%
barometer
mb
20260509211023 21 32 3.2 8.0 0.00 0.00 0.00 48 1008.5
20260509210523 21 0 3.2 6.4 0.00 0.00 0.00 48 1008.7
20260509205520 21 0 3.2 4.8 0.00 0.00 0.00 49 1008.7
20260509205019 21 0 3.2 6.4 0.00 0.00 0.00 48 1008.6
20260509204516 21 0 3.2 6.4 0.00 0.00 0.00 50 1008.6
20260509204014 21 31 3.2 6.4 0.00 0.00 0.00 50 1008.5
20260509203514 21 0 3.2 4.8 0.00 0.00 0.00 51 1008.4
20260509203008 21 0 4.8 4.8 0.00 0.00 0.00 48 1008.6
20260509202005 21 168 1.6 4.8 0.00 0.00 0.00 48 1008.5
20260509201504 21 169 0.0 4.8 0.00 0.00 0.00 49 1008.6
20260509201006 21 169 1.6 3.2 0.00 0.00 0.00 49 1008.5
20260509200502 21 0 0.0 4.8 0.00 0.00 0.00 49 1008.5
20260509200003 21 0 3.2 4.8 0.00 0.00 0.00 49 1008.5
20260509195502 21 209 1.6 8.0 0.00 0.00 0.00 46 1008.6
20260509194451 21 0 1.6 8.0 0.00 0.00 0.00 47 1008.7
20260509193944 21 0 1.6 6.4 0.00 0.00 0.00 46 1008.8
20260509193444 22 47 3.2 6.4 0.00 0.00 0.00 45 1008.9
20260509192945 20 0 1.6 8.0 0.00 0.00 0.00 47 1008.9
20260509192444 21 0 1.6 8.0 0.00 0.00 0.00 46 1009.0
20260509191943 21 54 3.2 14.5 0.00 0.00 0.00 50 1009.1
20260509191444 21 189 8.0 14.5 0.00 0.00 0.00 48 1009.1
20260509185943 21 0 3.2 8.0 0.00 0.00 0.00 48 1009.0
20260509185443 21 82 3.2 16.1 0.00 0.00 0.00 48 1009.2
20260509184945 21 0 6.4 16.1 0.00 0.00 0.00 46 1009.2
20260509184443 21 0 4.8 14.5 0.00 0.00 0.00 49 1009.1
20260509183944 21 94 6.4 16.1 0.00 0.00 0.00 49 1009.2
20260509183443 21 196 6.4 16.1 0.00 0.00 0.00 50 1009.2
20260509182944 21 145 6.4 11.3 0.00 0.00 0.00 46 1009.5
20260509181944 20 164 6.4 14.5 0.00 0.00 0.00 49 1009.8
20260509181443 20 138 6.4 14.5 0.00 0.00 0.00 48 1009.9
20260509175942 20 97 1.6 16.1 0.00 0.00 0.00 49 1010.1
20260509175443 21 142 8.0 16.1 0.00 0.00 0.00 49 1010.0
20260509174945 20 158 4.8 11.3 0.00 0.00 0.00 50 1009.8
20260509174443 20 178 4.8 11.3 0.00 0.00 0.00 52 1010.1
20260509173943 19 0 4.8 17.7 0.00 0.00 0.00 51 1010.2
20260509173444 19 34 11.3 17.7 0.00 0.00 0.00 52 1010.2
20260509172942 19 0 9.7 19.3 0.00 0.00 0.00 51 1010.2
20260509172443 20 0 12.9 19.3 0.00 0.00 0.00 50 1010.3
20260509171954 20 0 9.7 19.3 0.00 0.00 0.00 50 1010.4
20260509170944 18 0 6.4 11.3 0.00 0.00 0.00 52 1010.7
20260509170444 18 0 8.0 17.7 0.00 0.00 0.00 52 1010.7
20260509165943 18 32 8.0 17.7 0.00 0.00 0.00 53 1010.8
20260509164942 18 44 9.7 16.1 0.00 0.00 0.00 50 1011.0
20260509164442 18 11 9.7 16.1 0.00 0.00 0.00 50 1011.0
20260509163942 18 0 8.0 14.5 0.00 0.00 0.00 50 1011.0
20260509163444 19 0 6.4 16.1 0.00 0.00 0.00 50 1011.0
20260509162943 18 0 6.4 16.1 0.00 0.00 0.00 50 1010.9
20260509162443 20 0 9.7 14.5 0.00 0.00 0.00 48 1010.9
20260509161944 19 0 4.8 16.1 0.00 0.00 0.00 49 1011.0
20260509161444 19 0 9.7 16.1 0.00 0.00 0.00 48 1010.8
20260509160942 19 44 6.4 17.7 0.00 0.00 0.00 47 1010.7
20260509160444 19 0 9.7 17.7 0.00 0.00 0.00 47 1010.5
20260509155944 20 0 8.0 16.1 0.00 0.00 0.00 47 1010.5
20260509155444 19 133 6.4 14.5 0.00 0.00 0.00 48 1010.4
20260509154943 19 0 9.7 16.1 0.00 0.00 0.00 48 1010.3
20260509153945 20 0 6.4 20.9 0.00 0.00 0.00 49 1010.5
20260509153444 20 3 8.0 20.9 0.00 0.00 0.00 47 1010.6
20260509152942 20 133 4.8 14.5 0.00 0.00 0.00 47 1010.7
20260509152443 20 114 6.4 14.5 0.00 0.00 0.00 46 1010.8
20260509151944 19 0 3.2 8.0 0.00 0.00 0.00 48 1010.6
20260509151444 18 351 3.2 8.0 0.00 0.00 0.00 50 1010.8
20260509150944 18 0 3.2 11.3 0.00 0.00 0.00 52 1010.8
20260509145945 19 0 4.8 9.7 0.00 0.00 0.00 47 1010.9
20260509145443 19 0 1.6 8.0 0.00 0.00 0.00 50 1010.9
20260509144943 18 0 1.6 8.0 0.00 0.00 0.00 51 1010.8
20260509144443 18 302 3.2 6.4 0.00 0.00 0.00 51 1010.7
20260509143943 18 0 3.2 9.7 0.00 0.00 0.00 45 1010.8
20260509143442 19 7 4.8 9.7 0.00 0.00 0.00 48 1010.9
20260509142944 18 34 4.8 9.7 0.00 0.00 0.00 50 1011.0
20260509142441 18 47 4.8 9.7 0.00 0.00 0.00 48 1011.1
20260509141941 18 24 3.2 8.0 0.00 0.00 0.00 50 1011.2
20260509141439 17 35 3.2 6.4 0.00 0.00 0.00 48 1011.1
20260509140439 17 90 4.8 9.7 0.00 0.00 0.00 47 1011.3
20260509135437 16 83 1.6 3.2 0.00 0.00 0.00 53 1011.4
20260509134937 16 0 0.0 3.2 0.00 0.00 0.00 52 1011.3
20260509134436 16 104 1.6 3.2 0.00 0.00 0.00 53 1011.4
20260509133936 16 0 1.6 1.6 0.00 0.00 0.00 54 1011.3
20260509133437 16 252 0.0 1.6 0.00 0.00 0.00 50 1011.3
20260509132934 15 266 1.6 3.2 0.00 0.00 0.00 58 1011.3
20260509131931 15 176 1.6 3.2 0.00 0.00 0.00 61 1011.4
20260509131430 15 166 0.0 3.2 0.00 0.00 0.00 58 1011.3
20260509130930 15 87 1.6 3.2 0.00 0.00 0.00 58 1011.3
20260509130429 14 203 0.0 4.8 0.00 0.00 0.00 59 1011.4
20260509125428 14 179 1.6 6.4 0.00 0.00 0.00 61 1011.3
20260509124929 15 169 1.6 1.6 0.00 0.00 0.00 64 1011.2
20260509124430 15 164 0.0 3.2 0.00 0.00 0.00 62 1011.2
20260509123928 14 0 0.0 3.2 0.00 0.00 0.00 63 1011.2
20260509123429 14 0 1.6 1.6 0.00 0.00 0.00 61 1011.3
20260509122924 14 0 0.0 0.0 0.00 0.00 0.00 62 1011.3
20260509122425 14 264 0.0 3.2 0.00 0.00 0.00 62 1011.4
20260509121924 13 278 0.0 3.2 0.00 0.00 0.00 65 1011.4
20260509120917 13 262 0.0 0.0 0.00 0.00 0.00 65 1011.4
20260509120417 13 0 0.0 3.2 0.00 0.00 0.00 60 1011.4
20260509115918 13 281 0.0 3.2 0.00 0.00 0.00 60 1011.3
20260509115415 13 0 0.0 3.2 0.00 0.00 0.00 58 1011.3
20260509114415 13 0 0.0 1.6 0.00 0.00 0.00 63 1011.2
20260509113912 13 0 0.0 3.2 0.00 0.00 0.00 63 1011.3
20260509113414 13 0 0.0 3.2 0.00 0.00 0.00 57 1011.2
20260509112912 13 0 0.0 3.2 0.00 0.00 0.00 56 1011.2
20260509112412 13 0 1.6 3.2 0.00 0.00 0.00 55 1011.1
20260509111912 13 0 0.0 3.2 0.00 0.00 0.00 57 1011.1
20260509111408 13 0 1.6 3.2 0.00 0.00 0.00 57 1011.2
20260509110906 13 0 0.0 3.2 0.00 0.00 0.00 55 1011.0
20260509110405 13 0 1.6 3.2 0.00 0.00 0.00 53 1010.9
20260509105906 13 0 1.6 3.2 0.00 0.00 0.00 54 1010.9
20260509105402 13 196 0.0 1.6 0.00 0.00 0.00 54 1010.9
20260509104902 13 189 0.0 3.2 0.00 0.00 0.00 55 1010.9
20260509104400 13 188 0.0 3.2 0.00 0.00 0.00 55 1010.9
20260509103902 13 176 0.0 3.2 0.00 0.00 0.00 55 1011.0
20260509103402 13 182 0.0 3.2 0.00 0.00 0.00 54 1010.9
20260509102901 13 206 0.0 1.6 0.00 0.00 0.00 54 1010.9
20260509102406 13 206 0.0 4.8 0.00 0.00 0.00 54 1010.9
20260509101909 13 220 1.6 4.8 0.00 0.00 0.00 54 1010.8
20260509101404 13 179 1.6 4.8 0.00 0.00 0.00 54 1010.7
20260509100901 13 185 3.2 6.4 0.00 0.00 0.00 54 1010.8
20260509100403 13 209 3.2 6.4 0.00 0.00 0.00 55 1010.8
20260509095902 13 199 1.6 3.2 0.00 0.00 0.00 55 1010.8
20260509095402 13 179 1.6 3.2 0.00 0.00 0.00 56 1010.8
20260509094901 13 210 1.6 3.2 0.00 0.00 0.00 56 1010.7
20260509093902 13 195 1.6 3.2 0.00 0.00 0.00 54 1010.9
20260509093402 13 203 1.6 3.2 0.00 0.00 0.00 55 1010.9
20260509091359 13 210 0.0 1.6 0.00 0.00 0.00 52 1010.8
20260509090859 13 195 0.0 3.2 0.00 0.00 0.00 52 1010.7
20260509090356 13 196 1.6 3.2 0.00 0.00 0.00 52 1010.7
20260509085855 13 265 0.0 3.2 0.00 0.00 0.00 52 1010.7
20260509085354 13 271 0.0 3.2 0.00 0.00 0.00 51 1010.8
20260509084852 13 214 0.0 1.6 0.00 0.00 0.00 51 1010.8
20260509084349 13 212 0.0 3.2 0.00 0.00 0.00 52 1010.9
20260509083849 13 210 1.6 3.2 0.00 0.00 0.00 52 1010.8
20260509083347 13 212 0.0 3.2 0.00 0.00 0.00 53 1011.0
20260509082848 13 240 0.0 3.2 0.00 0.00 0.00 53 1011.1
20260509081844 13 235 0.0 3.2 0.00 0.00 0.00 53 1011.0
20260509081345 13 244 0.0 3.2 0.00 0.00 0.00 51 1011.0
20260509080344 13 244 0.0 6.4 0.00 0.00 0.00 52 1011.0
20260509075842 13 269 0.0 6.4 0.00 0.00 0.00 53 1011.0
20260509075343 13 258 0.0 6.4 0.00 0.00 0.00 53 1011.2
20260509074843 13 220 0.0 4.8 0.00 0.00 0.00 54 1011.2
20260509073344 13 245 0.0 3.2 0.00 0.00 0.00 53 1011.3
20260509072843 13 290 1.6 3.2 0.00 0.00 0.00 53 1011.2
20260509072343 13 213 1.6 6.4 0.00 0.00 0.00 53 1011.2
20260509071842 13 227 3.2 6.4 0.00 0.00 0.00 53 1011.2
20260509071343 13 214 0.0 1.6 0.00 0.00 0.00 53 1011.3
20260509070842 13 214 1.6 3.2 0.00 0.00 0.00 52 1011.3
20260509070342 13 219 0.0 4.8 0.00 0.00 0.00 53 1011.3
20260509065843 13 206 1.6 8.0 0.00 0.00 0.00 52 1011.4
20260509065341 13 235 0.0 8.0 0.00 0.00 0.00 52 1011.4
20260509064333 13 226 1.6 3.2 0.00 0.00 0.00 53 1011.4
20260509063833 13 243 1.6 3.2 0.00 0.00 0.00 53 1011.6
20260509063332 13 212 1.6 3.2 0.00 0.00 0.00 54 1011.6
20260509062832 13 234 1.6 3.2 0.00 0.00 0.00 54 1011.7
20260509062333 13 257 0.0 3.2 0.00 0.00 0.00 53 1011.7
20260509061831 14 269 1.6 4.8 0.00 0.00 0.00 52 1011.6
20260509061330 14 0 1.6 6.4 0.00 0.00 0.00 53 1011.7
20260509060829 14 0 1.6 6.4 0.00 0.00 0.00 53 1011.8
20260509060327 13 279 0.0 9.7 0.00 0.00 0.00 57 1011.8
20260509055827 13 0 3.2 9.7 0.00 0.00 0.00 57 1011.8
20260509055328 13 0 1.6 3.2 0.00 0.00 0.00 57 1011.9
20260509054828 13 0 1.6 3.2 0.00 0.00 0.00 57 1011.7
20260509054327 13 0 0.0 3.2 0.00 0.00 0.00 58 1011.8
20260509053826 13 0 0.0 3.2 0.00 0.00 0.00 58 1011.8
20260509053317 13 251 0.0 1.6 0.00 0.00 0.00 58 1011.8
20260509052818 12 247 0.0 3.2 0.00 0.00 0.00 59 1011.7
20260509052315 12 0 0.0 3.2 0.00 0.00 0.00 63 1011.9
20260509051813 12 0 0.0 3.2 0.00 0.00 0.00 62 1011.8
20260509051312 12 68 0.0 3.2 0.00 0.00 0.00 64 1011.8
20260509050811 11 68 0.0 3.2 0.00 0.00 0.00 66 1011.9
20260509050311 10 128 0.0 0.0 0.00 0.00 0.00 70 1011.9
20260509045811 10 124 0.0 0.0 0.00 0.00 0.00 69 1011.8
20260509045311 11 73 0.0 3.2 0.00 0.00 0.00 68 1011.8
20260509044810 10 73 0.0 3.2 0.00 0.00 0.00 70 1011.8
20260509044308 11 135 0.0 1.6 0.00 0.00 0.00 70 1011.7
20260509043802 10 85 0.0 3.2 0.00 0.00 0.00 70 1011.7
20260509042801 10 0 0.0 3.2 0.00 0.00 0.00 69 1011.8
20260509042307 10 135 0.0 3.2 0.00 0.00 0.00 71 1011.8
20260509041803 10 133 0.0 3.2 0.00 0.00 0.00 68 1011.8
20260509040801 10 127 0.0 3.2 0.00 0.00 0.00 70 1011.8
20260509040301 11 73 0.0 3.2 0.00 0.00 0.00 67 1011.8
20260509035801 10 131 0.0 3.2 0.00 0.00 0.00 72 1011.8
20260509035301 9 128 0.0 3.2 0.00 0.00 0.00 73 1011.8
20260509034301 8 0 0.0 3.2 0.00 0.00 0.00 73 1011.9
20260509033759 9 0 0.0 3.2 0.00 0.00 0.00 73 1011.9
20260509032759 8 0 1.6 3.2 0.00 0.00 0.00 73 1011.9
20260509032300 9 0 0.0 3.2 0.00 0.00 0.00 72 1011.9
20260509031255 9 137 0.0 3.2 0.00 0.00 0.00 71 1011.9
20260509030756 10 55 0.0 3.2 0.00 0.00 0.00 71 1011.8
20260509030256 9 55 0.0 3.2 0.00 0.00 0.00 71 1012.0
20260509025756 10 55 0.0 3.2 0.00 0.00 0.00 69 1011.9
20260509025255 10 56 0.0 3.2 0.00 0.00 0.00 69 1012.1
20260509024754 10 55 0.0 1.6 0.00 0.00 0.00 69 1012.1
20260509024252 10 55 0.0 1.6 0.00 0.00 0.00 68 1012.3
20260509023251 11 0 0.0 3.2 0.00 0.00 0.00 66 1012.3
20260509022753 11 54 0.0 3.2 0.00 0.00 0.00 67 1012.3
20260509022249 11 62 0.0 3.2 0.00 0.00 0.00 65 1012.1
20260509021751 11 0 1.6 3.2 0.00 0.00 0.00 63 1012.1
20260509021243 11 127 0.0 3.2 0.00 0.00 0.00 63 1012.0
20260509020743 11 130 0.0 3.2 0.00 0.00 0.00 61 1012.0
20260509020243 12 0 0.0 1.6 0.00 0.00 0.00 60 1012.1
20260509015741 12 0 0.0 0.0 0.00 0.00 0.00 60 1012.0
20260509014243 12 0 0.0 3.2 0.00 0.00 0.00 56 1012.0
20260509013241 13 56 0.0 0.0 0.00 0.00 0.00 57 1012.1
20260509012740 14 54 0.0 3.2 0.00 0.00 0.00 54 1011.9
20260509011741 15 54 0.0 1.6 0.00 0.00 0.00 50 1011.8
20260509011235 15 55 0.0 3.2 0.00 0.00 0.00 50 1011.8
20260509010735 15 54 1.6 3.2 0.00 0.00 0.00 52 1011.8
20260509010233 15 54 1.6 3.2 0.00 0.00 0.00 52 1011.8
20260509005733 16 110 0.0 3.2 0.00 0.00 0.00 46 1011.8
20260509005232 16 0 0.0 1.6 0.00 0.00 0.00 46 1011.7
20260509004733 16 55 0.0 4.8 0.00 0.00 0.00 45 1011.7
20260509003731 17 42 3.2 3.2 0.00 0.00 0.00 42 1011.6
20260509003228 18 49 3.2 3.2 0.00 0.00 0.00 40 1011.6
20260509002729 18 237 0.0 1.6 0.00 0.00 0.00 39 1011.6
20260509002230 18 176 0.0 4.8 0.00 0.00 0.00 37 1011.5
20260509001723 19 182 1.6 6.4 0.00 0.00 0.00 35 1011.5
20260509001222 19 137 3.2 6.4 0.00 0.00 0.00 35 1011.5
20260509000722 19 175 3.2 4.8 0.00 0.00 0.00 35 1011.4
20260509000222 19 179 1.6 4.8 0.00 0.00 0.00 35 1011.4
20260508235216 20 155 3.2 6.4 0.00 0.00 0.00 33 1011.3
20260508234718 20 164 3.2 6.4 0.00 0.00 0.00 34 1011.2
20260508233712 20 180 3.2 8.0 0.00 0.00 0.00 33 1011.2
20260508233212 20 0 4.8 14.5 0.00 0.00 0.00 36 1011.2
20260508232704 20 149 3.2 14.5 0.00 0.00 0.00 36 1011.1
20260508232203 21 172 3.2 8.0 0.00 0.00 0.00 36 1011.0
20260508231704 21 0 1.6 4.8 0.00 0.00 0.00 36 1011.1
20260508231202 21 269 0.0 4.8 0.00 0.00 0.00 36 1010.9
20260508230704 21 264 3.2 6.4 0.00 0.00 0.00 33 1011.0
20260508230204 21 279 3.2 8.0 0.00 0.00 0.00 31 1010.9
20260508225653 21 293 4.8 8.0 0.00 0.00 0.00 31 1010.9
20260508225151 21 268 4.8 8.0 0.00 0.00 0.00 32 1011.0
20260508224651 21 0 3.2 11.3 0.00 0.00 0.00 31 1010.9
20260508224152 21 310 3.2 11.3 0.00 0.00 0.00 33 1010.9
20260508223152 21 278 3.2 8.0 0.00 0.00 0.00 32 1010.9
20260508222652 21 281 4.8 8.0 0.00 0.00 0.00 30 1011.0
20260508222152 21 276 3.2 11.3 0.00 0.00 0.00 31 1011.0
20260508221650 20 0 6.4 11.3 0.00 0.00 0.00 33 1010.9
20260508221147 21 314 3.2 8.0 0.00 0.00 0.00 30 1010.9
20260508220645 21 0 3.2 11.3 0.00 0.00 0.00 30 1010.8
20260508215641 21 0 3.2 14.5 0.00 0.00 0.00 31 1010.9
20260508215142 21 0 8.0 14.5 0.00 0.00 0.00 30 1010.9
20260508214644 21 0 8.0 16.1 0.00 0.00 0.00 30 1010.9
20260508214141 22 278 8.0 16.1 0.00 0.00 0.00 31 1011.0
20260508213641 21 0 4.8 14.5 0.00 0.00 0.00 30 1010.9
20260508213142 22 0 8.0 14.5 0.00 0.00 0.00 30 1011.0
20260508212642 22 0 4.8 14.5 0.00 0.00 0.00 31 1011.0
20260508212148 21 0 8.0 17.7 0.00 0.00 0.00 32 1011.1